www.pogodaiklimat.ru

Погода и климат >> Архив погоды >> Россия >> Камчатский край >> Петропавловск-Камчатский


АРХИВ ПОГОДЫ в Петропавловск-Камчатском

Время (UTC), дата Ветер
(напр.,м/с)
 
Видим.   Явления Облачность Т
(С)
Тd
(С)
f
(%)
Тe
(С)
Тes
(С)
Комфортность P
(гПа)
Po
(гПа)
Тmin
(С)
Tmax
(С)
R
(мм)
R24
(мм)
S
(см)
00 16.07 СЗ 1 20 км {ливн. осадки} 9/9 600 м
[Sc diur, vesp]
+15.8 +9.7 67 +17 +18 тепло 998.9 996.1
03 16.07 Ю 1 50 км 9/3 600 м
[Cu Sc Ac trans Ci fib]
+17.3 +10.8 66 +18 +25 тепло 997.0 994.2
06 16.07 З 4 50 км 8/8 600 м
[Sc]
+18.5 +9.8 57 +19 +19 тепло 995.7 992.9
09 16.07 СЗ 7
{11}
50 км 8/8 600 м
[Sc]
+15.0 +8.7 66 +13 +13 по сезону 996.2 993.4 +19.7 0.0
12 16.07 СЗ 7-10
{12}
50 км 8/8 600 м
[Sc]
+13.1 +8.0 71 +11 +11 по сезону 996.6 993.8
15 16.07 С 4
{11}
50 км 9/9 600 м
[Sc]
+12.6 +8.1 74 +11 +11 по сезону 996.5 993.7
18 16.07 С 4 50 км 6/4 600 м
[Sc Ac trans Ci fib]
+12.3 +6.7 69 +10 +10 по сезону 996.8 993.9
21 16.07 С 4 50 км 9/1 600 м
[Sc Ac trans Ci fib]
+14.3 +8.0 66 +13 +15 по сезону 998.5 995.7 +11.7
00 17.07 СЗ 2 50 км 9/3 600 м
[Sc diur, vesp Ac trans Ci fib]
+19.5 +11.3 59 +21 +27 комфорт 999.3 996.5
03 17.07 ЮВ 2 50 км 10/9 600 м
[Sc Ci fib]
+16.2 +10.0 67 +16 +17 тепло 1000.8 998.0
06 17.07 ЮВ 2 50 км 9/8 600 м
[Sc Ac trans]
+15.8 +9.6 67 +16 +17 тепло 1002.3 999.5
09 17.07 ЮВ 3 50 км 1/1 1500 м
[Sc]
+14.9 +8.0 63 +14 +14 по сезону 1003.9 1001.1 +19.8
12 17.07 Ю 1 50 км ясно +12.6 +8.8 78 +13 +13 тепло 1005.3 1002.4
15 17.07 СЗ 2 50 км ясно +10.5 +8.7 89 +9 +9 по сезону 1006.2 1003.3
18 17.07 С 4 50 км 9/0
[Ac trans Ci fib]
+11.2 +9.7 90 +9 +9 по сезону 1006.5 1003.7
21 17.07 СЗ 4 50 км 9/0
[Ac trans Cc]
+13.5 +10.4 82 +12 +14 по сезону 1007.5 1004.7 +9.6
00 18.07 Ю 1 50 км 9/1 1000 м
[Cu hum Ci fib]
+16.7 +11.4 71 +18 +30 опасность
простуды
1007.6 1004.8
03 18.07 ЮВ 3 50 км 9/1 1000 м
[Cu hum Cc]
+18.9 +9.0 53 +20 +29 тепло 1007.2 1004.4
06 18.07 ЮВ 3 50 км 9/1 1000 м
[Sc diur, vesp Ac cast Cc]
+16.7 +10.8 68 +16 +19 тепло 1007.9 1005.1
09 18.07 ЮВ 2 50 км 9/1 1000 м
[Sc Ac trans Cc]
+14.0 +8.9 71 +14 +14 по сезону 1009.0 1006.1 +20.5
12 18.07 ЮЗ 1 20 км 10/4 600 м
[Sc Ac trans Ci fib]
+14.0 +9.5 74 +14 +14 тепло 1009.1 1006.2
15 18.07 штиль 0 20 км 9/3 600 м
[Sc Ac trans Ci fib]
+11.8 +9.9 88 +11 +11 по сезону 1009.0 1006.1
18 18.07 С 1 50 км 9/8 600 м
[Sc Ac trans Ci fib]
+11.9 +10.3 90 +12 +12 по сезону 1009.5 1006.6
21 18.07 штиль 0 50 км 10/6 600 м
[Sc Ac As Ci fib]
+14.4 +11.2 81 +14 +16 тепло 1010.6 1007.7 +11.6
00 19.07 ЮЗ 1 50 км 8/4 1000 м
[Sc Ac trans Ci fib]
+16.1 +11.5 74 +17 +24 тепло 1010.8 1007.9
03 19.07 ЮВ 6 50 км 8/3 1000 м
[Sc Ac trans Ci fib]
+15.6 +11.1 75 +14 +17 по сезону 1011.0 1008.1
06 19.07 ЮВ 4
{11}
50 км 8/3 1000 м
[Cu med, cong Ac trans Ci fib]
+15.5 +10.3 71 +15 +16 по сезону 1011.3 1008.5
09 19.07 ЮВ 2 20 км 3/1 300 м
[St Ac trans Ci fib]
+12.4 +9.5 82 +11 +12 по сезону 1012.9 1010.0 +17.2
12 19.07 Ю 1 10 км 4/3 300 м
[St Ac trans Ci fib]
+10.3 +8.9 91 +10 +10 по сезону 1014.0 1011.1
15 19.07 ЮВ 2 10 км туман на расстоянии 10/10 300 м
[St]
+10.5 +9.1 91 +9 +9 по сезону 1014.4 1011.5
18 19.07 штиль 0 2000 м туман на расстоянии 10/10 200 м
[St]
+11.0 +9.5 90 +10 +10 по сезону 1015.2 1012.3
21 19.07 С 3 1000 м дымка 10/10 100 м
[St]
+12.1 +10.5 90 +10 +10 по сезону 1015.9 1013.0 +10.0
00 20.07 Ю 1 20 км туман на расстоянии 5/1 300 м
[St Ac trans Ci fib]
+16.7 +12.4 76 +18 +29 тепло 1015.9 1013.1
03 20.07 ЮВ 7-10
{10}
50 км туман поземный 3/1 600 м
[Sc Ac trans]
+15.8 +11.5 76 +14 +17 по сезону 1015.9 1013.0
06 20.07 ЮВ 4
{11}
20 км туман на расстоянии 4/3 1000 м
[Sc Ac trans Ci fib]
+16.4 +11.2 71 +16 +18 по сезону 1016.6 1013.7
09 20.07 ЮВ 3 50 км туман на расстоянии 8/3 100 м
[Sc Ac trans Ci fib]
+12.9 +10.5 85 +11 +11 по сезону 1017.8 1014.9 +18.0
12 20.07 штиль 0 20 км туман на расстоянии 9/8 300 м
[Sc Ci fib]
+12.1 +10.5 90 +11 +11 по сезону 1018.5 1015.5
15 20.07 ЮВ 2 20 км туман на расстоянии 9/6 300 м
[Sc Ac trans Ci fib]
+11.5 +10.2 92 +10 +10 по сезону 1019.2 1016.2
18 20.07 ЮВ 2 4000 м туман на расстоянии 10/10 300 м
[St]
+11.6 +10.3 92 +10 +10 по сезону 1018.5 1015.6
21 20.07 ЮВ 1 2000 м туман на расстоянии 10/10 200 м
[St]
+12.8 +10.7 87 +13 +13 по сезону 1018.7 1015.8 +11.5
00 21.07 ЮВ 3 10 км туман на расстоянии 10/8 300 м
[St Ci fib]
+14.0 +10.2 78 +13 +15 по сезону 1018.8 1015.9
03 21.07 ЮВ 4 10 км туман на расстоянии 10/10 300 м
[St]
+13.4 +10.2 81 +12 +12 прохладно 1017.9 1015.0
06 21.07 Ю 1 10 км туман на расстоянии 10/8 300 м
[St Ac trans]
+13.0 +9.5 79 +13 +14 по сезону 1017.3 1014.4
09 21.07 ЮВ 1 10 км туман на расстоянии 10/8 300 м
[St Ac trans]
+11.2 +9.0 86 +11 +11 по сезону 1016.5 1013.5 +14.6
12 21.07 ЮВ 1 10 км слабый ливневой дождь 10/10 300 м
[Cb cap]
+11.1 +9.6 90 +11 +11 по сезону 1015.8 1012.9
15 21.07 штиль 0 10 км слабый ливневой дождь 10/10 300 м
[Cb cap]
+11.2 +9.9 92 +10 +10 по сезону 1014.2 1011.3
18 21.07 ЮВ 3 2000 м слабый ливневой дождь 10/10 200 м
[Cb cap]
+11.3 +10.2 93 +9 +9 по сезону 1012.6 1009.7
21 21.07 ЮВ 2 10 км туман на расстоянии {ливн. осадки} 10/10 200 м
[Sc]
+11.6 +10.5 93 +10 +10 по сезону 1011.1 1008.2 +11.0 2
00 22.07 ЮВ 2 2000 м слабый ливневой дождь 10/10 200 м
[Cb cap]
+11.6 +10.5 93 +10 +10 прохладно 1009.9 1007.0
03 22.07 штиль 0 10 км {ливн. осадки} 10/10 200 м
[Sc]
+12.9 +11.3 90 +12 +12 прохладно 1008.4 1005.5
06 22.07 С 3 10 км {ливн. осадки} 10/9 300 м
[Sc Ac trans]
+14.7 +11.8 83 +14 +14 по сезону 1007.2 1004.4
09 22.07 В 1 10 км слабый ливневой дождь 10/10 300 м
[Cb cap]
+13.6 +12.0 90 +14 +14 по сезону 1007.2 1004.3 +15.7 0.5
12 22.07 СЗ 3 10 км слабый ливневой дождь 10/10 300 м
[Cb cap]
+13.7 +12.5 92 +12 +12 по сезону 1006.7 1003.8
15 22.07 С 2 10 км в посл. час ливневой дождь 10/10 200 м
[Sc diur, vesp]
+13.8 +12.8 94 +13 +13 тепло 1006.4 1003.5
18 22.07 СЗ 2 20 км {ливн. осадки} 10/10 200 м
[Sc diur, vesp]
+14.1 +13.1 94 +14 +14 тепло 1006.0 1003.2
21 22.07 СЗ 3 50 км 4/1 600 м
[Sc Ac As Ci fib]
+15.8 +14.6 93 +15 +19 тепло 1007.2 1004.4 +13.4 4

 

Местоположение метеостанции Петропавловск-Камчатский (Камчатский край, Россия): широта 52.87 долгота 158.60 высота над уровнем моря 24 м.

В архиве по умолчанию представлена погода в Петропавловск-Камчатском за последнюю неделю. Архивные данные за месяц целиком и за предыдущие месяцы, начиная с января 2011 года, Вы можете получить, выбрав интересующий диапазон дат из раскрывающегося списка и нажав кнопку "Ввод!".

Внимание! Время в таблицах - всемирное. Для получения местного времени необходимо прибавить поправку, которая в Петропавловск-Камчатском равна 12 ч.

Смотрите также архив погоды в соседних городах и на ближайших метеорологических станциях:

Погода в Петропавловском Маяке (Камчатский край, Россия) (7 км)
Погода в Петропавловск-Камч. 2 (Камчатский край, Россия) (24 км)
Погода в Сосновке (Камчатский край, Россия) (31 км)
Погода в Начиках (Камчатский край, Россия) (66 км)
Погода в Водопадной (Камчатский край, Россия) (124 км)
Погода в Пущино (Камчатский край, Россия) (151 км)
Погода в Большерецке (Камчатский край, Россия) (155 км)
Погода в Семячике (Камчатский край, Россия) (163 км)
Погода в Мильково (Камчатский край, Россия) (201 км)
Погода в Озерной (Камчатский край, Россия) (215 км)

Пояснения к столбцам:

Ветер - указаны скорость ветра в м/с - средняя за 10 мин, порывы в срок и между сроками (в фигурных скобках) и направление, откуда дует ветер: С - северный, СВ - северо-восточный, В - восточный, ЮВ - юго-восточный, Ю - южный, ЮЗ - юго-западный, З - западный, СЗ - северо-западный.
Видимость - горизонтальная дальность видимости в метрах или километрах. При видимости от 1 до 10 км при отсутствии осадков обычно наблюдается дымка, при ухудшении видимости до 1 км и менее - туман. В сухую погоду видимость может ухудшаться дымом, пылью или мглою.
Явления - указаны атмосферные явления, наблюдавшиеся в срок или в последний час перед сроком; фигурными скобками обозначены явления, наблюдавшиеся между сроками (за 1-3 часа до срока); квадратными скобками обозначены град или гололедные отложения с указанием их диаметра в мм.
Облачность - указаны через наклонную черту общая и нижняя облачность в баллах и высота нижней границы облаков в метрах; квадратными скобками обозначены формы облаков: Ci - перистые, Cs - перисто-слоистые, Cc - перисто-кучевые, Ac - высококучевые, As - высокослоистые, Sc - слоисто-кучевые, Ns - слоисто-дождевые, Cu - кучевые, Cb - кучево-дождевые. Подробнее классификацию облаков см. в Атласе облаков (PDF).
T - Температура воздуха - температура, измеренная на высоте 2 м над землей.
Td - Температура точки росы - температура, при понижении до которой содержащийся в воздухе водяной пар достигнет насыщения.
f - Относительная влажность воздуха - влажноcть воздуха, измеренная на высоте 2 м над землей.
Te - Эффективная температура - температура, которую ощущает одетый по сезону человек в тени. Характеристика душности погоды. При расчете учитывается влияние влажности воздуха и скорости ветра на теплоощущения человека.
Tes - Эффективная температура на солнце - температура, которую ощущает человек, с поправкой на солнечный нагрев. Характеристика знойности погоды. Зависит от высоты солнца над горизонтом, облачности и скорости ветра. Ночью, в пасмурную погоду, а также при ветре 12 м/с и более поправка равна нулю.
P - Атмосферное давление - приведенное к уровню моря атмосферное давление.
Po - Атмосферное давление - измеренное на уровне метеостанции атмосферное давление.
Tmin - Минимальная температура - минимум температуры воздуха на высоте 2 м над землей.
Tmax - Максимальная температура - максимум температуры воздуха на высоте 2 м над землей.
R - Количество осадков - Количество выпавших осадков за период времени, мм. При наведении курсора мыши на число - период времени, за который выпало указанное количество осадков.
R24 - Количество осадков - Количество выпавших осадков за 24 часа, мм.
S - Снежный покров - Высота снежного покрова, см. При наведении курсора мыши на число - состояние снежного покрова и степень покрытия местности в баллах.